Satellite-Ground Cal/Val Region Overpasses Predictions

Prediction of Satellite NPP Overpassing Cal/Val Region: PacNW

Region Location: (Latitude: 10.00, Longitude: 139.50) to (Latitude: 22.70, Longitude: 165.60).

Table of predicted overpasses for the next 14.0 days since TLE Epoch: 9/10/2022
Interval Starting Time Starting Location Ending Time Ending Location
1 09/10/2022 15:31:13 ( 22.65, 152.23) 09/10/2022 15:34:48 ( 10.03, 149.23)
2 09/11/2022 02:40:17 ( 10.02, 159.76) 09/11/2022 02:43:53 ( 22.70, 156.74)
3 09/11/2022 15:12:11 ( 22.65, 156.99) 09/11/2022 15:15:46 ( 10.03, 153.98)
4 09/12/2022 02:21:16 ( 10.02, 164.51) 09/12/2022 02:24:52 ( 22.70, 161.50)
5 09/12/2022 14:53:10 ( 22.65, 161.74) 09/12/2022 14:56:45 ( 10.03, 158.74)
6 09/13/2022 03:43:44 ( 10.02, 143.89) 09/13/2022 03:47:19 ( 22.64, 140.89)
7 09/13/2022 14:35:11 ( 18.96, 165.59) 09/13/2022 14:37:43 ( 10.03, 163.50)
8 09/13/2022 16:15:38 ( 22.65, 141.12) 09/13/2022 16:17:31 ( 16.02, 139.51)
9 09/14/2022 03:24:43 ( 10.02, 148.65) 09/14/2022 03:28:18 ( 22.64, 145.65)
10 09/14/2022 15:56:37 ( 22.65, 145.88) 09/14/2022 16:00:12 ( 10.03, 142.88)
11 09/15/2022 03:05:42 ( 10.02, 153.41) 09/15/2022 03:09:17 ( 22.65, 150.40)
12 09/15/2022 15:37:35 ( 22.65, 150.64) 09/15/2022 15:41:10 ( 10.03, 147.63)
13 09/16/2022 02:46:40 ( 10.02, 158.16) 09/16/2022 02:50:15 ( 22.65, 155.16)
14 09/16/2022 15:18:34 ( 22.64, 155.39) 09/16/2022 15:22:09 ( 10.03, 152.39)
15 09/17/2022 02:27:39 ( 10.03, 162.92) 09/17/2022 02:31:14 ( 22.65, 159.92)
16 09/17/2022 14:59:32 ( 22.64, 160.15) 09/17/2022 15:03:07 ( 10.02, 157.15)
17 09/18/2022 02:11:08 ( 18.90, 165.60) 09/18/2022 02:12:12 ( 22.65, 164.67)
18 09/18/2022 03:50:07 ( 10.03, 142.30) 09/18/2022 03:53:28 ( 21.84, 139.50)
19 09/18/2022 14:40:30 ( 22.70, 164.92) 09/18/2022 14:44:06 ( 10.02, 161.90)
20 09/18/2022 16:22:00 ( 22.70, 139.55) 09/18/2022 16:22:03 ( 22.52, 139.50)
21 09/19/2022 03:31:06 ( 10.04, 147.06) 09/19/2022 03:34:41 ( 22.66, 144.05)
22 09/19/2022 16:02:58 ( 22.69, 144.30) 09/19/2022 16:06:34 ( 10.02, 141.28)
23 09/20/2022 03:12:04 ( 10.04, 151.81) 09/20/2022 03:15:39 ( 22.66, 148.81)
24 09/20/2022 15:43:57 ( 22.69, 149.06) 09/20/2022 15:47:33 ( 10.01, 146.04)
25 09/21/2022 02:53:03 ( 10.04, 156.57) 09/21/2022 02:56:38 ( 22.67, 153.57)
26 09/21/2022 15:24:55 ( 22.69, 153.81) 09/21/2022 15:28:31 ( 10.01, 150.80)
27 09/22/2022 02:34:01 ( 10.05, 161.33) 09/22/2022 02:37:36 ( 22.67, 158.32)
28 09/22/2022 15:05:54 ( 22.68, 158.57) 09/22/2022 15:09:30 ( 10.01, 155.55)
29 09/23/2022 02:15:36 ( 12.17, 165.60) 09/23/2022 02:18:35 ( 22.68, 163.08)
30 09/23/2022 03:56:30 ( 10.06, 140.71) 09/23/2022 03:57:58 ( 15.23, 139.51)
